Location: Bedeque Bay
(46.3213°N, 63.9142°W)
Time: 19:18:14
(UTC+00:00)

Daily predictions for brighter satellites

Satellite Brightness Start Highest point End
(mag) Time Altitude Azimuth Time Altitude Azimuth Time Altitude Azimuth
SL-16 R/B 2.6 20:53:03 10° NNE 20:59:18 72° ESE 21:05:29 10° S
Cosmos 1315 Rocket 2.8 20:57:56 10° S 21:01:40 57° E 21:05:27 10° NNE
Meteor 1-28 Rocket 3.0 21:01:10 10° NNE 21:04:29 55° E 21:07:45 10° S
Cosmos 1758 Rocket 4.3 21:01:39 10° N 21:05:29 30° ENE 21:09:16 10° SE
USA 276 3.8 21:06:27 10° SW 21:06:41 10° SW 21:06:56 10° SSW
ATLAS CENTAUR R/B 2.3 21:05:12 10° N 21:07:33 18° NE 21:09:51 10° E
Lacrosse 5 rocket 1.1 21:03:54 10° SW 21:07:41 79° NW 21:11:23 10° NE
Cosmos 2098 Rocket 4.0 21:04:41 10° SE 21:07:48 24° E 21:11:19 10° NNE
Cosmos 1356 Rocket 3.3 21:04:27 10° S 21:08:25 66° E 21:12:28 10° NNE
Cosmos 2228 3.0 21:06:41 10° S 21:10:49 59° E 21:15:00 10° NNE
SMAP 3.3 21:08:15 10° SE 21:12:44 49° ENE 21:17:14 10° N
Iridium 51 3.6 21:11:33 10° S 21:14:36 64° E 21:17:44 10° N
NOSS 3-2 (C) 4.3 21:13:10 10° SSE 21:16:54 22° ESE 21:20:53 11° ENE
Cosmos 1782 3.3 21:14:29 10° SSE 21:17:43 33° E 21:20:59 10° NNE
SJ-12 4.4 21:15:00 10° SE 21:18:23 32° ENE 21:21:47 10° N
NOSS 3-2 (A) 3.2 21:13:57 10° SSW 21:18:46 57° ESE 21:24:28 10° NE
Landsat 7 4.1 21:14:47 10° SE 21:19:11 44° ENE 21:23:36 10° N
ARIANE 6 FM1 Upper Stage 3.5 21:17:40 10° NW 21:21:32 52° SW 21:25:27 10° SSE
Intercosmos 24 3.7 21:22:20 10° N 21:26:24 62° E 21:29:54 10° SSE
NOSS 2-2 (C) 2.8 21:24:11 10° SW 21:27:31 75° NW 21:30:16 12° NE
BREEZE M DEB (TANK) 3.8 21:13:42 10° WNW 21:29:07 84° NNE 21:33:07 10° ESE
Cosmos 1626 Rocket 3.5 21:26:03 10° N 21:30:23 63° E 21:34:39 10° SSE
Cosmos 2263 Rocket 3.7 21:27:56 10° N 21:31:14 15° NE 21:33:06 13° ENE
UNK 3.7 21:28:00 10° NNE 21:32:36 72° ESE 21:37:09 10° S
Cosmos 1570 Rocket 4.0 21:29:11 10° NNW 21:34:33 75° ENE 21:39:51 10° SSE
Cosmos 2227 Rocket 3.2 21:34:41 10° N 21:39:19 25° NE 21:43:20 12° E
CORIOLIS 4.2 21:34:52 10° SSE 21:40:12 87° WSW 21:45:35 10° NNW
MOS 1 Rocket 3.5 21:36:40 10° SE 21:41:16 51° ENE 21:46:11 10° N
Okean 1-7 Rocket 4.2 21:38:57 10° N 21:42:56 32° ENE 21:46:51 10° SE
Cosmos 405 Rocket 2.4 21:40:01 10° NNW 21:43:17 78° W 21:46:30 10° S
Cosmos 2369 Rocket 4.2 21:38:58 10° W 21:43:17 22° NW 21:47:39 10° N
Cosmos 836 Rocket 4.4 21:39:36 10° NNW 21:44:53 81° ENE 21:50:08 10° SSE
ERS-1 4.4 21:40:52 10° SSE 21:45:51 66° ENE 21:50:49 10° N
Cosmos 1544 Rocket 3.5 21:42:22 10° S 21:46:45 81° E 21:51:11 10° N
Cosmos 1486 Rocket 4.1 21:42:05 10° S 21:47:08 55° ESE 21:52:03 11° NNE
IRIDIUM 106 4.4 21:43:50 10° N 21:48:59 57° E 21:54:07 10° SSE
Cosmos 2151 3.0 21:45:41 10° N 21:49:45 50° ENE 21:53:47 10° SSE
SL-08 ROCKET BODY 4.3 21:45:04 10° N 21:51:01 86° E 21:57:02 10° S
Cosmos 1241 Rocket 4.5 21:45:00 10° SSW 21:51:22 80° ESE 21:56:59 14° NE
Cosmos 1697 Rocket 3.4 21:53:41 10° SSE 21:58:32 31° ESE 22:00:55 22° ENE
SKYMED 2 4.0 21:56:31 17° NE 21:59:28 39° E 22:03:32 10° SSE
Gbstr 26 Del rocket 4.3 21:57:14 10° S 22:00:08 19° SE 22:00:57 18° ESE
Meteor 1-20 Rocket 4.1 21:55:22 10° N 22:00:49 64° ENE 22:06:14 10° SSE
Cosmos 773 Rocket 4.0 21:58:51 10° NNW 22:04:05 87° WSW 22:09:20 10° SSE
ARIANE 5 R/B 2.7 21:59:05 10° S 22:04:06 73° WSW 22:09:12 10° NNW
SPOT 1/Viking Rocket 3.6 21:59:14 10° SSE 22:04:17 55° ENE 22:09:23 10° N
Lacrosse 4 Rocket 3.4 22:01:24 10° W 22:04:40 23° NW 22:07:55 10° N
Cosmos 1726 Rocket 4.4 22:01:07 10° SSE 22:05:12 32° E 22:06:30 27° ENE
Cosmos 2208 Rocket 4.0 22:02:13 10° NNW 22:07:24 81° WSW 22:12:35 10° SSE
Cosmos 1602 Rocket 3.4 22:03:34 10° N 22:08:01 84° E 22:12:22 10° S
Cosmos 2279 Rocket 4.4 22:04:40 10° SSW 22:10:48 64° WNW 22:17:00 10° N
COSMO-SKYMED 1 3.0 22:13:09 35° E 22:13:33 36° E 22:17:20 10° SSE
PSLV R/B 3.8 22:13:58 37° ENE 22:13:59 37° ENE 22:17:43 10° N
USA 290 2.0 22:13:15 10° NNW 22:16:32 78° ENE 22:19:13 14° SSE
CENTAUR R/B 3.7 22:11:38 10° W 22:17:06 37° NNW 22:22:46 14° NNE
Cosmos 990 Rocket 4.4 22:14:09 10° S 22:18:53 40° ESE 22:20:08 34° ENE
CZ-2D R/B 4.4 22:17:35 10° SSW 22:20:30 36° W 22:23:27 10° NNW
YAOGAN 1 2.6 22:16:43 10° SSE 22:20:50 51° ENE 22:25:00 10° N
CZ-4 R/B 4.2 22:17:15 10° SSE 22:21:12 82° ENE 22:25:10 10° N
BlueWalker 3 1.9 22:17:53 10° WNW 22:21:31 72° SW 22:22:52 36° SE
CZ-4C R/B 2.9 22:15:44 10° NW 22:22:38 68° NE 22:31:12 10° SE
Cosmos 1461 2.8 22:21:23 10° SSW 22:25:09 52° ESE 22:25:24 51° ESE
USA 215 3.8 22:23:35 28° ENE 22:26:17 41° NNE 22:32:20 10° NW
CZ-2D R/B 3.3 22:22:18 10° SSE 22:26:31 73° ENE 22:30:42 10° N
NOSS 2-2 (D) 3.9 22:23:31 10° WSW 22:26:36 35° NW 22:27:22 30° NNW
Cosmos 2084 Rocket 3.5 22:22:44 10° NNW 22:26:51 49° NE 22:27:03 49° NE
Meteor 1-25 Rocket 4.2 22:22:58 10° N 22:28:50 83° ENE 22:34:37 10° SSE
Cosmos 2297 Rocket 2.4 22:27:20 10° NNW 22:32:59 71° WSW 22:38:37 10° SSE
Cosmos 1743 4.1 22:30:17 10° NNW 22:33:15 33° W 22:36:12 10° SSW
NOSS 2-2 (E) 3.8 22:30:31 10° WSW 22:33:39 38° NW 22:34:04 36° NNW
Cosmos 783 Rocket 4.4 22:32:47 10° NNW 22:38:07 86° ENE 22:43:25 10° SSE
Cosmos 1656 4.5 22:33:02 10° SW 22:38:28 50° WNW 22:42:55 16° NNE
SL-19 R/B 4.0 22:34:36 10° SSE 22:39:52 73° ENE 22:45:25 10° NNW
Cosmos 1825 Rocket 3.5 22:38:12 10° N 22:42:35 85° W 22:46:54 10° S
ATLAS CENTAUR R/B 1.8 22:39:31 10° NW 22:42:36 43° WSW 22:43:06 39° SSW
Lacrosse 5 rocket 2.9 22:42:14 10° WNW 22:45:09 21° NNW 22:45:15 21° NNW
Cosmos 2219 4.3 22:40:26 10° N 22:43:59 27° NNE 22:43:59 27° NNE
BREEZE-M DEB (TANK) 3.9 22:41:52 10° WNW 22:45:35 71° NNE 22:48:51 37° E
Meteor 1-5 Rocket 3.9 22:41:19 10° N 22:46:39 77° E 22:52:04 10° SSE
Cosmos 1503 Rocket 4.3 22:47:07 10° SSW 22:52:20 64° WNW 22:55:04 28° N
Cosmos 1607 4.3 22:50:08 10° NW 22:56:18 64° WSW 23:02:30 10° SSE
Cosmos 1933 4.2 22:54:44 10° SSW 22:58:25 45° WNW 22:59:22 37° NW
Cosmos 1354 Rocket 4.0 22:53:21 10° SSW 22:58:38 80° WNW 23:00:12 47° N
Cosmos 1980 Rocket 3.0 22:54:19 10° S 22:57:54 34° SSE 22:57:54 34° SSE
Spot 4 Rocket 4.4 22:55:57 10° S 23:01:00 64° WSW 23:06:06 10° NNW
NOSS 3-2 (C) 3.4 23:01:55 10° SW 23:06:56 63° NW 23:08:18 48° N
Cosmos 1867 3.7 23:09:54 10° NW 23:15:21 72° WSW 23:16:02 64° S
Cosmos 2263 Rocket 2.6 23:10:35 10° NNW 23:14:49 49° N 23:14:49 49° N
Cosmos 2227 Rocket 2.5 23:18:13 10° NNW 23:23:48 64° WSW 23:25:15 47° S
Cosmos 1244 Rocket 4.4 23:20:08 10° N 23:34:57 - S 23:26:03 79° N
Cosmos 1697 Rocket 3.5 23:36:56 10° SW 23:42:17 45° NW 23:42:40 44° NW
